TimeCST,TemperatureF,Dew PointF,Humidity,Sea Level PressureIn,VisibilityMPH,Wind Direction,Wind SpeedMPH,Gust SpeedMPH,PrecipitationIn,Events,Conditions,WindDirDegrees,DateUTC
12:53 AM,42.1,37.9,85,30.10,10.0,SSE,10.4,-,N/A,,Clear,160,2011-11-24 06:53:00
1:53 AM,42.1,37.9,85,30.09,10.0,South,8.1,-,N/A,,Clear,180,2011-11-24 07:53:00
2:53 AM,42.8,39.2,87,30.09,10.0,South,8.1,-,N/A,,Clear,180,2011-11-24 08:53:00
3:53 AM,41.0,37.9,89,30.08,10.0,SSE,6.9,-,N/A,,Clear,160,2011-11-24 09:53:00
4:53 AM,43.0,39.0,86,30.07,10.0,South,10.4,-,N/A,,Clear,180,2011-11-24 10:53:00
5:53 AM,41.0,37.9,89,30.07,10.0,South,11.5,-,N/A,,Clear,170,2011-11-24 11:53:00
6:53 AM,43.0,39.0,86,30.07,10.0,South,10.4,-,N/A,,Clear,180,2011-11-24 12:53:00
7:53 AM,45.0,39.9,82,30.07,10.0,South,11.5,-,N/A,,Clear,180,2011-11-24 13:53:00
8:53 AM,48.9,42.1,77,30.07,10.0,South,13.8,24.2,N/A,,Clear,180,2011-11-24 14:53:00
9:53 AM,54.0,43.0,66,30.06,10.0,South,13.8,23.0,0.00,,Clear,180,2011-11-24 15:53:00
10:53 AM,62.1,43.0,50,30.04,10.0,South,15.0,-,N/A,,Clear,180,2011-11-24 16:53:00
11:53 AM,66.9,39.9,37,29.99,10.0,SSW,27.6,36.8,N/A,,Clear,200,2011-11-24 17:53:00
12:53 PM,68.0,41.0,37,29.97,10.0,South,19.6,29.9,N/A,,Clear,190,2011-11-24 18:53:00
1:53 PM,69.1,43.0,39,29.94,10.0,South,20.7,27.6,N/A,,Clear,180,2011-11-24 19:53:00
2:53 PM,69.1,43.0,39,29.92,10.0,South,17.3,31.1,N/A,,Clear,180,2011-11-24 20:53:00
3:53 PM,66.9,44.1,44,29.91,10.0,South,18.4,33.4,0.00,,Clear,180,2011-11-24 21:53:00
4:53 PM,63.0,46.9,56,29.92,10.0,South,16.1,27.6,N/A,,Clear,180,2011-11-24 22:53:00
5:53 PM,59.0,48.0,67,29.91,10.0,South,18.4,28.8,N/A,,Clear,180,2011-11-24 23:53:00
6:53 PM,57.0,46.9,69,29.94,10.0,South,15.0,27.6,N/A,,Clear,190,2011-11-25 00:53:00
7:53 PM,57.0,46.9,69,29.93,10.0,South,17.3,26.5,N/A,,Clear,190,2011-11-25 01:53:00
8:53 PM,55.9,46.9,72,29.92,10.0,South,17.3,25.3,N/A,,Clear,190,2011-11-25 02:53:00
9:53 PM,53.1,46.0,77,29.90,10.0,South,15.0,24.2,N/A,,Clear,180,2011-11-25 03:53:00
10:53 PM,51.8,44.6,76,29.89,10.0,South,17.3,26.5,N/A,,Clear,180,2011-11-25 04:53:00
11:53 PM,51.1,45.0,80,29.86,9.0,South,21.9,29.9,N/A,,Clear,190,2011-11-25 05:53:00